Regional Weather Roundup
Issued by NWS

Home | Current Version | Previous Version | Graphics & Text | Print | Product List | Glossary On
Versions: 1 2 3 4 5 6 7 8 9 10 11 12 13 14 15 16 17 18 19 20 21 22 23 24 25 26 27 28 29 30 31 32 33 34 35 36 37 38 39 40 41 42 43 44 45 46 47 48 49 50
000
ASUS43 KFSD 242110
RWRSD

WEATHER ROUNDUP FOR SOUTH DAKOTA
NATIONAL WEATHER SERVICE SIOUX FALLS SD
400 PM CDT WED MAY 24 2017

NOTE: "FAIR" INDICATES FEW OR NO CLOUDS BELOW 12,000 FEET WITH NO
SIGNIFICANT WEATHER AND/OR OBSTRUCTIONS TO VISIBILITY.


SDZ001>005-009-010-012>017-242200-
NORTHWEST AND NORTH CENTRAL SOUTH DAKOTA

CITY           SKY/WX    TMP DP  RH WIND       PRES   REMARKS
BUFFALO          N/A     75  43  31 SE29G38   29.33F
FAITH            N/A     70  39  32 S28G39    29.48F
MOBRIDGE       SUNNY     68  40  35 S20G29    29.53F
$$

SDZ012>016-024>037-041>051-057-063-072>074-242200-
SOUTHWEST AND SOUTH CENTRAL SOUTH DAKOTA

CITY           SKY/WX    TMP DP  RH WIND       PRES   REMARKS
RAPID CTY ARPT SUNNY     76  45  33 S25G31    29.46F
PIERRE         SUNNY     68  40  35 S18G31    29.56F
CUSTER         SUNNY     71  38  29 S8        29.57F
ELLSWORTH AFB  SUNNY     75  46  34 S21G30    29.44F
PHILIP         SUNNY     74  39  28 S22G29    29.51F
PINE RIDGE     SUNNY     75  47  36 S15G23    29.52F
SPEARFISH      FAIR      75  54  46 NE8       29.44F
WINNER         FAIR      68  43  40 S14G22    29.62F
$$

SDZ004>011-016>023-039-040-242200-
NORTHEAST SOUTH DAKOTA

CITY           SKY/WX    TMP DP  RH WIND       PRES   REMARKS
ABERDEEN       PTSUNNY   65  39  38 S16G26    29.64F
WATERTOWN      CLOUDY    60  45  57 S8        29.68F
BROOKINGS      CLOUDY    60  46  59 E8        29.70F
SISSETON         N/A     62  44  51 S13       29.68F
$$

SDZ017-020-022-023-036>040-048>070-242200-
SOUTHEAST SOUTH DAKOTA

CITY           SKY/WX    TMP DP  RH WIND       PRES   REMARKS
SIOUX FALLS    CLOUDY    63  47  55 SE6       29.70F
HURON          MOSUNNY   64  44  48 S12G20    29.66F
CHAMBERLAIN    MOSUNNY   68  47  46 S13       29.64F
MITCHELL       CLOUDY    65  45  48 SE10      29.68F
YANKTON        MOSUNNY   62  43  49 SE6       29.70F
$$

ABBREVIATIONS USED IN REMARKS
   TC - TEMPERATURE IN CELSIUS
  WCI - WIND CHILL INDEX
   HX - HEAT INDEX
  VSB - VISIBILITY




USA.gov is the U.S. government's official web portal to all federal, state and local government web resources and services.